Flag for Chile Weather past 2 weeks in Puerto Williams, Chile

Now
36 °F

Passing clouds.


Feels Like: 33 °F
Forecast: 29 / 42 °F
Wind: 3 mph from Southwest

Location: Ushuaia Aerodrome

Current Time: Aug 20, 2014 at 11:31:55 AM

Latest Report: Aug 20, 2014 at 11:00 AM


Visibility: N/A

Pressure: 29.86 "Hg

Humidity: 70%

Dew point: 27 °F

Location of Puerto WilliamsLocation

Historic Weather in Puerto Williams — Graph

°F

Puerto Williams temperature yesterday

Maximum temperature yesterday: 43 °F (at 2:00 PM)
Minimum temperature yesterday: 30 °F (at 9:00 AM)
Average temperature yesterday: 36 °F

Past Weeks' High & Low Weather Summary

 TemperatureHumidityPressure
High52 °F (Aug 14, 7:00 PM)100% (Aug 10, 9:00 AM)30.80 "Hg (Aug 10, 9:00 AM)
Low30 °F (Aug 11, 7:00 AM)44% (Aug 14, 7:00 PM)28.47 "Hg (Aug 8, 2:00 PM)
Average37 °F78%29.34 "Hg
* Reported Aug 5 10:00 AM — Aug 20 10:00 AM, Puerto Williams, Weather by CustomWeather, © 2014

Note: Actual official high and low records may vary slightly from our data, if they occured in-between our weather recording intervals... More about our weather records

Advertising

Puerto Williams weather history for previous 24 hours

 ConditionsComfort  
Time TempWeatherWind HumidityBarometerVisibility
10:00 AM
Aug 20
34 °FPartly sunny.No wind81%29.86 "HgN/A
9:00 AM32 °FPartly sunny.No wind80%29.83 "HgN/A
8:00 AM32 °FPartly sunny.3 mph87%29.83 "HgN/A
7:00 AM32 °FPartly sunny.3 mph93%29.80 "HgN/A
6:00 AM32 °FClear.3 mph87%29.80 "Hg10 mi
5:00 AM34 °FClear.5 mph70%29.80 "Hg10 mi
4:00 AM34 °FClear.6 mph70%29.80 "Hg10 mi
3:00 AM34 °FClear.6 mph70%29.80 "Hg10 mi
2:00 AM34 °FClear.3 mph70%29.80 "Hg10 mi
1:00 AM32 °FPassing clouds.6 mph87%29.83 "HgN/A
12:00 AM34 °FPassing clouds.7 mph81%29.83 "HgN/A
11:00 PM
Aug 19
36 °FPassing clouds.12 mph70%29.86 "HgN/A
10:00 PM36 °FPassing clouds.7 mph70%29.86 "HgN/A
9:00 PM37 °FPartly cloudy.12 mph65%29.86 "HgN/A
8:00 PM36 °FPartly cloudy.9 mph70%29.86 "HgN/A
7:00 PM36 °FPartly cloudy.7 mph70%29.86 "HgN/A
6:00 PM37 °FPassing clouds.6 mph65%29.86 "HgN/A
5:00 PM41 °FPassing clouds.6 mph61%29.86 "HgN/A
4:00 PM41 °FPassing clouds.6 mph57%29.89 "HgN/A
3:00 PM43 °FPassing clouds.6 mph46%29.86 "HgN/A
2:00 PM43 °FScattered clouds.3 mph46%29.89 "HgN/A
1:00 PM41 °FScattered clouds.3 mph53%29.89 "HgN/A
12:00 PM39 °FScattered clouds.7 mph70%29.89 "HgN/A
11:00 AM36 °FScattered clouds.9 mph60%29.89 "HgN/A
Weather by CustomWeather, © 2014

See weather overviewHow to use our weather pages